[[{"header":{"parameterUnit":"m.s-1","parameterCategory":1,"la1":30.2991,"la2":30.254,"lo1":-89.0895,"lo2":-89.0444,"dy":0.0017,"dx":0.0017,"nx":28,"ny":28,"refTime":"2024-05-14T21:00:00:Z","depth":0,"parameterNumber":2,"parameterNumberName":"U-component_of_WINDS"},"data":[0,0,0,0,0,0,0,0,0,0,0,0,0,0,0,0,0,0,0,0,0,0,0,0,0,0,0,0,0,0,0,0,0,0,0,0,0,0,0,0,0,0,0,0,0,0,0,0,0,0,0,0,0,0,0,0,0,0,2.3662,2.3661,0,2.3607,2.3606,2.3606,2.3482,2.3479,2.3476,2.3474,2.3423,2.3424,2.3425,0,0,0,0,0,0,0,0,0,0,0,0,0,2.3665,2.3666,2.3662,2.3661,2.3661,2.3607,2.3606,2.3606,2.3482,2.3479,2.3476,2.3473,2.3422,2.3424,2.3425,0,0,0,0,0,0,0,0,0,0,0,0,0,2.3643,2.3666,2.3662,2.3592,2.3586,2.3607,2.3606,2.3605,2.3483,2.3479,2.3475,2.3471,2.3422,2.3424,2.3425,2.3512,0,0,2.343,2.343,0,0,0,0,0,0,0,0,2.3644,2.3643,2.3603,2.3597,2.359,2.3547,2.3588,2.3574,2.3484,2.3522,2.3474,2.3469,2.3468,2.3465,2.3463,2.3509,2.3507,2.343,2.3431,2.3431,2.3432,0,0,0,0,0,0,0,2.3646,2.3644,2.364,2.3603,2.3595,2.3566,2.3558,2.3585,2.3517,2.3518,2.3509,2.3504,2.3463,2.3462,2.3461,2.3506,2.343,2.3431,2.3432,2.3433,2.3622,2.3626,0,0,0,0,0,0,2.3657,2.3646,2.3642,2.3639,2.3608,2.3569,2.356,2.3565,2.3516,2.3505,2.3507,2.3498,2.3461,2.346,2.3459,2.3558,2.3431,2.3433,2.3434,2.3618,2.3623,2.3627,0,0,0,0,0,0,2.3657,2.3657,2.3644,2.364,2.3636,2.3573,2.3579,2.3566,2.3564,2.3508,2.3496,2.3519,2.3458,2.3457,2.3499,2.3555,2.3434,2.3435,2.3613,2.362,2.3625,2.3758,0,0,0,0,0,0,2.3658,2.3658,2.3689,2.3642,2.3637,2.3685,2.3582,2.3567,2.3567,2.3555,2.3515,2.3505,2.3455,2.3498,2.3501,2.3555,2.3436,2.3608,2.3616,2.3623,2.3748,2.3768,2.3784,0,0,0,0,0,2.3658,2.373,2.3692,2.3692,2.3674,2.3688,2.3685,2.3625,2.3572,2.3603,2.3567,2.3507,2.3548,2.3503,2.3506,2.3561,2.3604,2.3614,2.3623,2.374,2.3764,2.3784,0,0,0,0,0,0,2.3787,2.3722,2.3679,2.3737,2.3719,2.3667,2.3705,2.3652,2.3649,2.3638,2.3565,2.3557,2.361,2.3589,2.3541,2.3643,2.3566,2.3577,2.3655,2.3677,2.3695,2.37,2.3437,0,0,0,0,0,2.3822,2.3837,2.378,2.3836,2.3829,2.3769,2.3773,2.3728,2.3707,2.3699,2.3666,2.3649,2.3658,2.3666,2.3671,2.3744,2.3735,2.3783,2.3802,2.3817,2.3827,2.3866,2.3887,2.3658,2.3658,2.3657,0,0,2.3895,2.3861,2.3875,2.3862,2.3842,2.3861,2.3763,2.3788,2.3802,2.3703,2.3741,2.3717,2.3693,2.3752,2.3776,2.3736,2.3888,2.3828,2.3841,2.3843,2.3878,2.3899,2.3919,2.3664,2.3663,2.3662,0,0,2.4038,2.4013,2.4057,2.404,2.4011,2.3971,2.3982,2.3938,2.3918,2.3954,2.3881,2.3897,2.3914,2.3901,2.3897,2.4036,2.3981,2.4039,2.4135,2.4174,2.4192,2.4207,2.4259,2.4278,2.4049,2.405,2.405,0,2.4132,2.4156,2.4088,2.4117,2.4114,2.4023,2.407,2.4056,2.4032,2.4033,2.3988,2.4008,2.3986,2.4041,2.4075,2.4074,2.4086,2.4044,2.4194,2.4209,2.4223,2.4271,2.4291,2.4057,2.4056,2.4056,2.4055,0,2.4275,2.4293,2.4333,2.4311,2.4312,2.435,2.4289,2.4298,2.4253,2.4218,2.4258,2.4228,2.4227,2.4236,2.4193,2.4286,2.4262,2.4207,2.4129,2.4254,2.4298,2.4316,2.4068,2.4065,2.4063,2.4061,0,0,2.4498,2.4437,2.4453,2.4442,2.4404,2.4418,2.4452,2.4449,2.446,2.4446,2.4475,2.4492,2.444,2.4436,2.439,2.4424,2.4538,2.4364,2.4363,2.44,2.4642,2.4685,2.4707,2.4501,2.4504,2.4506,2.4644,0,2.4634,2.4687,2.4627,2.4694,2.4711,2.4626,2.4656,2.4637,2.4605,2.4617,2.4582,2.4596,2.4526,2.4523,2.4552,2.4518,2.4586,2.4507,2.4529,2.4531,2.4539,2.473,2.4775,2.4907,2.4661,2.4664,2.4666,0,2.4798,2.4791,2.486,2.4819,2.4823,2.4852,2.4845,2.4856,2.4833,2.4808,2.4803,2.4748,2.4781,2.4704,2.4749,2.4697,2.4702,2.4687,2.4691,2.4692,2.4607,2.4738,2.4947,2.4968,2.4692,2.469,2.4688,0,2.4957,2.4964,2.5007,2.5,2.4952,2.4974,2.4956,2.4929,2.4932,2.4926,2.4928,2.4927,2.4927,2.4928,2.4875,2.4823,2.4929,2.4846,2.4911,2.4913,2.4938,2.4938,2.5153,2.4939,2.4939,2.4938,2.4938,0,2.5115,2.5161,2.5077,2.5104,2.5153,2.5084,2.5136,2.5109,2.5086,2.5107,2.5033,2.5056,2.4983,2.4998,2.4956,2.5002,2.5002,2.4984,2.4973,2.4992,2.4994,2.4996,2.4986,2.4943,2.4942,2.4941,2.494,0,2.5301,2.5246,2.5287,2.5238,2.5227,2.5266,2.5225,2.5249,2.5212,2.524,2.5243,2.5186,2.52,2.5146,2.5151,2.5123,2.5192,2.5164,2.5199,2.5191,2.5259,2.5255,2.5484,2.5512,2.5279,2.5281,2.5283,0,2.5406,2.5439,2.5394,2.5402,2.5387,2.5401,2.5403,2.5337,2.5342,2.532,2.5347,2.5354,2.5356,2.5383,2.5343,2.5347,2.5321,2.5401,2.5321,2.534,2.5324,2.5324,2.5328,2.5418,2.5421,2.5424,2.5425,0,2.56,2.5571,2.5576,2.5572,2.5576,2.557,2.5559,2.557,2.5499,2.5509,2.5521,2.5523,2.5528,2.5537,2.5533,2.5516,2.5461,2.5451,2.5466,2.5487,2.5506,2.5499,2.5246,2.5446,2.5444,2.5443,2.5441,2.5441,2.575,2.5776,2.5748,2.5756,2.5741,2.5732,2.5752,2.5718,2.5726,2.5724,2.5685,2.5706,2.5684,2.5672,2.5661,2.5677,2.564,2.5662,2.5668,2.5675,2.5688,2.5502,2.5676,2.5676,2.5675,2.5674,2.5674,0,2.5941,2.5919,2.5927,2.5913,2.5921,2.5865,2.585,2.5861,2.5879,2.5863,2.5866,2.5882,2.5891,2.5852,2.5856,2.5877,2.5852,2.588,2.5879,2.5877,2.572,2.5707,2.5901,2.5901,2.5901,2.5901,2.5901,2.5901,2.6042,2.6083,2.6052,2.6086,2.6063,2.6082,2.6079,2.6072,2.6058,2.6078,2.6084,2.6058,2.6034,2.6035,2.6042,2.603,2.6036,2.6074,2.6055,2.5909,2.5887,2.5866,2.5854,2.6075,2.6076,2.621,2.6211,2.6212]},{"header":{"parameterUnit":"m.s-1","parameterCategory":1,"la1":30.2991,"la2":30.254,"lo1":-89.0895,"lo2":-89.0444,"dy":0.0017,"dx":0.0017,"nx":28,"ny":28,"refTime":"2024-05-14T21:00:00:Z","depth":0,"parameterNumber":3,"parameterNumberName":"V-component_of_WINDS"},"data":[0,0,0,0,0,0,0,0,0,0,0,0,0,0,0,0,0,0,0,0,0,0,0,0,0,0,0,0,0,0,0,0,0,0,0,0,0,0,0,0,0,0,0,0,0,0,0,0,0,0,0,0,0,0,0,0,0,0,1.746,1.7462,0,1.763,1.7631,1.7633,1.772,1.772,1.772,1.772,1.789,1.7894,1.7899,0,0,0,0,0,0,0,0,0,0,0,0,0,1.7207,1.7211,1.746,1.7462,1.7464,1.7629,1.7632,1.7634,1.772,1.772,1.772,1.772,1.7889,1.7894,1.7899,0,0,0,0,0,0,0,0,0,0,0,0,0,1.734,1.7212,1.7459,1.7527,1.7535,1.7629,1.7632,1.7635,1.7719,1.772,1.772,1.772,1.7887,1.7893,1.79,1.7939,0,0,1.7921,1.7923,0,0,0,0,0,0,0,0,1.7333,1.735,1.7515,1.7522,1.7531,1.7654,1.7605,1.7737,1.7719,1.7649,1.772,1.772,1.7811,1.7824,1.7856,1.7947,1.7954,1.7921,1.7925,1.7928,1.793,0,0,0,0,0,0,0,1.7323,1.7343,1.7527,1.7517,1.7527,1.7547,1.7567,1.763,1.7727,1.7655,1.7662,1.7681,1.7816,1.7849,1.786,1.7957,1.7921,1.7927,1.7931,1.7934,1.809,1.809,0,0,0,0,0,0,1.7304,1.7334,1.7522,1.7532,1.743,1.7552,1.7573,1.7614,1.7727,1.7744,1.7681,1.7684,1.7837,1.7852,1.7866,1.792,1.7928,1.7934,1.7938,1.809,1.809,1.809,0,0,0,0,0,0,1.7298,1.732,1.7515,1.7435,1.7462,1.7556,1.7601,1.7617,1.7651,1.7746,1.7764,1.7697,1.7838,1.7857,1.7921,1.7927,1.7937,1.7943,1.809,1.809,1.809,1.8028,0,0,0,0,0,0,1.729,1.7317,1.7334,1.7435,1.7466,1.7567,1.7602,1.7621,1.7663,1.7669,1.7766,1.7782,1.784,1.791,1.7927,1.7937,1.7949,1.8089,1.809,1.809,1.8029,1.8026,1.8022,0,0,0,0,0,1.7281,1.7308,1.7334,1.7356,1.7488,1.7567,1.7584,1.7651,1.7663,1.768,1.7741,1.7779,1.7924,1.7916,1.7936,1.7948,1.8089,1.809,1.809,1.8031,1.8026,1.8022,0,0,0,0,0,0,1.7204,1.7323,1.7353,1.7414,1.748,1.7581,1.7605,1.7643,1.7706,1.771,1.7788,1.7809,1.7866,1.7913,1.7903,1.7992,1.801,1.8015,1.7959,1.7955,1.7952,1.7939,1.7954,0,0,0,0,0,1.7194,1.7249,1.735,1.7394,1.7426,1.7509,1.7546,1.7592,1.7663,1.7691,1.7757,1.7823,1.7884,1.7922,1.7983,1.8037,1.8059,1.8054,1.8051,1.8047,1.805,1.8083,1.8082,1.8091,1.8091,1.8091,0,0,1.7174,1.7246,1.7276,1.738,1.7437,1.7491,1.7532,1.7588,1.7629,1.7699,1.7764,1.7814,1.7894,1.7953,1.7982,1.7994,1.8053,1.8048,1.8044,1.8049,1.8083,1.8082,1.8081,1.8091,1.8091,1.8091,0,0,1.7166,1.7226,1.727,1.7326,1.7411,1.7467,1.7477,1.7573,1.761,1.7677,1.773,1.778,1.7882,1.7937,1.7978,1.7991,1.8029,1.8009,1.799,1.802,1.802,1.8019,1.8024,1.8025,1.8011,1.8011,1.8011,0,1.713,1.7215,1.7287,1.734,1.7384,1.7451,1.7496,1.7546,1.7646,1.7675,1.7687,1.7818,1.7876,1.7949,1.7953,1.7984,1.7998,1.7998,1.8014,1.8015,1.8015,1.8021,1.8023,1.8008,1.8008,1.8009,1.8009,0,1.7167,1.7225,1.725,1.7347,1.7394,1.7442,1.752,1.7559,1.76,1.7654,1.7721,1.7793,1.787,1.7891,1.7931,1.797,1.7975,1.7999,1.802,1.801,1.8017,1.802,1.8004,1.8005,1.8006,1.8006,0,0,1.7114,1.7251,1.7258,1.7303,1.7403,1.7449,1.75,1.7577,1.7609,1.7675,1.772,1.7806,1.783,1.7876,1.7924,1.795,1.7956,1.7972,1.7975,1.7967,1.8004,1.7984,1.7986,1.7982,1.7983,1.7983,1.7997,0,1.7119,1.7216,1.7282,1.7352,1.7407,1.7471,1.7516,1.7581,1.7633,1.7686,1.7744,1.7803,1.783,1.7859,1.7888,1.7949,1.7965,1.7949,1.8024,1.8026,1.8002,1.7989,1.7969,1.7979,1.8,1.8001,1.8001,0,1.7139,1.7205,1.7281,1.7376,1.7401,1.744,1.7516,1.7566,1.7642,1.7678,1.773,1.7779,1.7835,1.785,1.7929,1.7917,1.7951,1.7986,1.7988,1.7997,1.8013,1.7998,1.7983,1.7984,1.8006,1.8005,1.8005,0,1.7092,1.7201,1.7261,1.7297,1.7409,1.7435,1.7482,1.7558,1.76,1.7666,1.7694,1.7765,1.7804,1.7858,1.7924,1.7929,1.7996,1.8017,1.8027,1.8025,1.8038,1.8036,1.8028,1.806,1.806,1.806,1.806,0,1.7092,1.7135,1.7242,1.7278,1.7329,1.7404,1.7453,1.7505,1.7572,1.762,1.768,1.7723,1.7808,1.7861,1.7913,1.7971,1.7988,1.8018,1.8031,1.8013,1.8009,1.8036,1.8037,1.806,1.806,1.806,1.806,0,1.7048,1.7121,1.7191,1.7291,1.7318,1.7351,1.7437,1.7474,1.753,1.7589,1.7607,1.7694,1.776,1.7832,1.7921,1.7957,1.8011,1.803,1.7986,1.7994,1.8,1.7998,1.8009,1.8015,1.8042,1.8041,1.8041,0,1.7043,1.7079,1.7183,1.722,1.7267,1.7325,1.7369,1.7444,1.7487,1.7576,1.7603,1.7674,1.7735,1.7837,1.7908,1.7977,1.7998,1.7997,1.8008,1.7989,1.7998,1.7995,1.7999,1.7993,1.7992,1.7992,1.7991,0,1.7026,1.706,1.7122,1.7196,1.7247,1.7308,1.7372,1.7398,1.7487,1.7532,1.7601,1.7648,1.774,1.781,1.7888,1.7936,1.7978,1.7987,1.7994,1.7975,1.7948,1.7963,1.7976,1.7987,1.7987,1.7987,1.7988,1.7988,1.7001,1.7036,1.7116,1.7182,1.7239,1.7297,1.7338,1.7399,1.7458,1.754,1.7581,1.765,1.7725,1.7834,1.7882,1.7936,1.7949,1.7958,1.796,1.7961,1.7956,1.7939,1.7951,1.7951,1.7951,1.7951,1.7952,0,1.6987,1.7042,1.7102,1.7191,1.7243,1.728,1.7352,1.7393,1.7453,1.7521,1.758,1.7659,1.7727,1.7803,1.7876,1.7905,1.7926,1.7922,1.792,1.7931,1.794,1.7928,1.7903,1.7903,1.7903,1.7903,1.7903,1.7903,1.6986,1.7047,1.7091,1.718,1.7235,1.7304,1.7342,1.7397,1.7451,1.7537,1.7595,1.7644,1.7716,1.7794,1.7858,1.7879,1.7903,1.7893,1.7919,1.7926,1.793,1.7934,1.7923,1.7897,1.7897,1.7905,1.7905,1.7905]}]]